www.pogodaiklimat.ru

Погода и климат >> Архив погоды >> Россия >> Хабаровский край >> Советская Гавань


ПОГОДА в Советской Гавани

  • Прогноз погоды в Советской Гавани
  • Монитор погоды в Советской Гавани
  • Климат города

АРХИВ ПОГОДЫ в Советской Гавани

Время (UTC), дата Ветер
(напр.,м/с)
 
Видим.   Явления Облачность Т
(С)
Тd
(С)
f
(%)
Тe
(С)
Тes
(С)
Комфортность P
(гПа)
Po
(гПа)
Тmin
(С)
Tmax
(С)
R
(мм)
R24
(мм)
S
(см)
12 15.04 штиль 0 40 км 4/0
[Ci fib]
-1.2 -6.5 67 -2 -2 1008.2 1005.5
15 15.04 ЮЗ 2 50 км 10/0
[Ci fib]
-3.2 -6.6 77 -7 -7 1007.5 1004.8
18 15.04 ЮЗ 4 50 км 6/0
[Ci fib]
-3.9 -7.1 78 -10 -10 1006.4 1003.7
21 15.04 ЮЗ 2 50 км 3/0
[Ci fib]
-3.7 -7.3 76 -8 -7 1007.0 1004.3 -4.5 5
00 16.04 Ю 2 50 км ясно +4.8 -5.9 46 +3 +12 опасность
простуды
1007.1 1004.5
03 16.04 штиль 0 50 км 1/1 600 м
[Cu hum]
+9.7 -5.7 33 +10 +27 опасность
простуды
1005.4 1002.8
06 16.04 Ю 6-12
{12}
50 км 3/3 600 м
[Cu hum Ci fib]
+8.4 -7.0 33 +5 +7 1004.0 1001.5
09 16.04 штиль 0
{12}
50 км 10/0
[Ci fib]
+7.8 -6.8 35 +8 +8 1004.4 1001.8 +10.3
12 16.04 ЮЗ 4 40 км ясно +5.7 -5.3 45 +2 +2 1006.7 1004.1
15 16.04 ЮЗ 2 40 км ясно +2.6 -5.2 56 0 0 1007.1 1004.5
18 16.04 ЮЗ 6 50 км ясно +6.5 -5.9 41 +3 +3 1007.1 1004.5
21 16.04 ЮЗ 2 50 км 10/3 600 м
[Sc Ac trans Ci fib]
+5.7 -4.3 49 +4 +4 1008.8 1006.2 +1.4 5
00 17.04 З 4 50 км 10/0
[Cc]
+13.6 -5.3 26 +12 +17 1008.8 1006.2
03 17.04 З 2 50 км 10/0
[Cc]
+17.9 -6.9 18 +18 +30 опасность
простуды
1007.9 1005.4
06 17.04 Ю 6-10
{10}
50 км 6/0
[Ac lent Ci fib]
+15.4 -4.7 25 +14 +16 1005.1 1002.6
09 17.04 З 2
{10}
50 км 10/0
[Cc]
+13.7 -5.9 25 +14 +14 1004.3 1001.8 +18.9
12 17.04 ЮЗ 2 40 км ясно +8.2 -4.1 42 +7 +7 1005.9 1003.4
15 17.04 штиль 0 40 км ясно +2.5 -1.5 75 +2 +2 1006.9 1004.3
18 17.04 штиль 0 30 км ясно +3.3 -2.7 65 +3 +3 1006.5 1003.9
21 17.04 З 2 10 км 10/10 600 м
[Sc]
+5.1 -2.0 60 +3 +3 1006.3 1003.8 +2.0 0
00 18.04 С 2 20 км 10/0
[As trans]
+6.5 -0.3 62 +5 +8 1006.5 1003.9
03 18.04 С 2 10 км 10/6 600 м
[Cb cap Ac As Ci fib]
+6.0 +0.7 69 +4 +7 1006.3 1003.7
06 18.04 СВ 2 10 км слабый ливневой дождь 10/8 600 м
[Cb cap Ac As]
+3.1 +0.9 85 0 +1 1007.0 1004.3
09 18.04 В 2 10 км слабый ливневой дождь 10/8 300 м
[Cb cap Ac As]
+0.8 +0.2 96 -3 -3 1008.3 1005.7 +10.3 1
12 18.04 н/о 1009.4 1006.8
15 18.04 штиль 0 3500 м дымка 10/10 300 м
[Cb cap]
+1.1 +0.3 94 -0 -0 1010.3 1007.7
18 18.04 штиль 0 3900 м дымка 10/10 300 м
[Cb cap]
+0.9 +0.3 96 -0 -0 1010.9 1008.3
21 18.04 штиль 0 10 км 10/8 300 м
[St Ac lent]
+1.3 +0.6 95 0 0 1011.6 1008.9 +0.6 4
00 19.04 штиль 0 10 км 10/10 300 м
[St]
+1.9 +0.7 92 +1 +1 1012.4 1009.8
03 19.04 С 2 20 км 10/8 600 м
[Sc Ac As]
+3.7 +1.3 84 +1 +2 1012.3 1009.7
06 19.04 В 2 20 км 10/6 600 м
[Sc Ac As]
+4.1 +1.3 82 +1 +2 1010.9 1008.3
09 19.04 СЗ 2 2000 м дымка 10/6 300 м
[St Ac As]
+1.0 +0.1 94 -3 -3 1010.7 1008.1 +5.6
12 19.04 штиль 0 1100 м дымка {туман} 10/10 300 м
[St]
+0.3 -0.1 97 -1 -1 1011.5 1008.9
15 19.04 штиль 0 11 км {ливн. осадки} 10/5 600 м
[Sc Ac trans Ci fib]
+0.4 +0.1 98 -1 -1 1010.9 1008.2
18 19.04 штиль 0 11 км {ливн. осадки} 10/6 600 м
[Cb cap Ci fib]
+0.2 -0.2 97 -1 -1 1009.6 1007.0
21 19.04 ЮЗ 2 10 км 10/5 600 м
[St Ac trans Cc]
-0.5 -0.8 98 -4 -4 1009.0 1006.3 -0.7
00 20.04 штиль 0 20 км 10/1 600 м
[Cu hum Ac trans Ci fib]
+6.7 +2.5 75 +6 +12 1007.7 1005.1
03 20.04 штиль 0 20 км 10/3 600 м
[Sc Ac trans Cc]
+16.0 +3.4 43 +16 +23 1005.1 1002.6
06 20.04 З 8-16
{24}
20 км 10/0
[Ac trans Cc]
+16.2 +2.9 41 +15 +16 1005.2 1002.7
09 20.04 СВ 4
{16}
20 км 10/8 600 м
[Sc Ac As]
+8.8 +0.2 55 +6 -1 1007.2 1004.6 +17.8
12 20.04 В 2 16 км 10/8 600 м
[Sc Ac As]
+1.2 +0.2 93 -2 -2 1007.6 1005.0
15 20.04 СВ 2 13 км в посл. час ливневой дождь 10/8 600 м
[Cb cap Ac As]
+1.0 +0.4 96 -3 -3 1005.6 1003.0
18 20.04 С 2 3100 м дымка {ливн. осадки} 10/10 600 м
[Cb cap]
+0.8 +0.4 97 -3 -3 1004.0 1001.4
21 20.04 С 2 4000 м слабый ливневой дождь {туман} 10/10 300 м
[Cb cap]
+0.8 +0.5 98 -3 -3 1001.9 999.3 +0.3 0.7
00 21.04 СВ 2 4000 м 10/10 300 м
[Cb cap]
+0.8 +0.5 98 -3 -3 1000.6 998.0
03 21.04 СВ 2 10 км {ливн. осадки} 10/8 300 м
[Cb cap Ac lent]
+1.2 +0.7 96 -2 -2 1002.9 1000.3
06 21.04 СВ 4 10 км {ливн. осадки} 10/8 300 м
[Cb cap Ac lent Ci fib]
+2.0 +0.2 88 -3 -3 1006.1 1003.4
09 21.04 СВ 4 10 км в посл. час ливневой дождь 10/8 600 м
[Cb cap Ac trans Ci fib]
+0.9 -0.4 91 -4 -4 1011.3 1008.6 +3.7 1
12 21.04 С 4
{10}
15 км {ливн. осадки} 3/0
[Ac trans Ci fib]
+0.2 -1.2 90 -5 -5 1015.5 1012.9
15 21.04 С 6
{16}
18 км 6/0
[Ac trans Ci fib]
+0.1 -1.6 88 -7 -7 1018.0 1015.4
18 21.04 ЮВ 2 18 км 8/0
[Ac trans]
-1.5 -2.2 95 -6 -6 1019.2 1016.5
21 21.04 ЮЗ 2 20 км 1/0
[Ac trans]
-1.3 -2.1 94 -5 -4 1020.6 1017.9 -2.3 0.0
00 22.04 З 2 50 км 3/3 600 м
[Cu hum Ci fib]
+5.6 -0.7 64 +3 +10 1020.7 1018.0
03 22.04 В 4 50 км 10/8 600 м
[Cu med, cong Ci fib]
+8.7 -2.9 44 +6 +8 1020.0 1017.4
06 22.04 Ю 4 50 км 10/4 600 м
[Cb cap Ac trans Cc]
+7.8 -3.4 45 +5 +7 1019.7 1017.1
09 22.04 штиль 0 50 км 10/4 600 м
[Sc Ac lent Cc]
+5.6 -2.0 58 +5 +5 1019.9 1017.3 +9.6

 

Местоположение метеостанции Советская Гавань (Хабаровский край, Россия): широта 49.00 долгота 140.30 высота над уровнем моря 24 м.

В архиве по умолчанию представлена погода в Советской Гавани за последнюю неделю. Архивные данные за месяц целиком и за предыдущие месяцы, начиная с января 2011 года, Вы можете получить, выбрав интересующий диапазон дат из раскрывающегося списка и нажав кнопку "Ввод!".


*Определитесь, кто Вы:
робот инопланетянин человек

Внимание! Время в таблицах - всемирное. Для получения местного времени необходимо прибавить поправку, которая в Советской Гавани равна 10 ч.

Смотрите также архив погоды в соседних городах и на ближайших метеорологических станциях:

Погода в Тумнине (Хабаровский край, Россия) (75 км)
Погода в Мопау (Хабаровский край, Россия) (103 км)
Погода в Углегорске (Сахалинская область, Россия) (124 км)
Погода в Солекуль (Хабаровский край, Россия) (169 км)
Погода в Пильво (Сахалинская область, Россия) (175 км)
Погода в Ильинском (Сахалинская область, Россия) (180 км)
Погода в Макарове (Сахалинская область, Россия) (181 км)
Погода в Сегжеме (Хабаровский край, Россия) (203 км)
Погода в Поронайске (Сахалинская область, Россия) (205 км)
Погода в Оноре (Сахалинская область, Россия) (209 км)

Пояснения к столбцам:

Ветер - указаны скорость ветра в м/с - средняя за 10 мин, порывы в срок и между сроками (в фигурных скобках) и направление, откуда дует ветер: С - северный, СВ - северо-восточный, В - восточный, ЮВ - юго-восточный, Ю - южный, ЮЗ - юго-западный, З - западный, СЗ - северо-западный.
Видимость - горизонтальная дальность видимости в метрах или километрах. При видимости от 1 до 10 км при отсутствии осадков обычно наблюдается дымка, при ухудшении видимости до 1 км и менее - туман. В сухую погоду видимость может ухудшаться дымом, пылью или мглою.
Явления - указаны атмосферные явления, наблюдавшиеся в срок или в последний час перед сроком; фигурными скобками обозначены явления, наблюдавшиеся между сроками (за 1-3 часа до срока); квадратными скобками обозначены град или гололедные отложения с указанием их диаметра в мм.
Облачность - указаны через наклонную черту общая и нижняя облачность в баллах и высота нижней границы облаков в метрах; квадратными скобками обозначены формы облаков: Ci - перистые, Cs - перисто-слоистые, Cc - перисто-кучевые, Ac - высококучевые, As - высокослоистые, Sc - слоисто-кучевые, Ns - слоисто-дождевые, Cu - кучевые, Cb - кучево-дождевые. Подробнее классификацию облаков см. в Атласе облаков (PDF).
T - Температура воздуха - температура, измеренная на высоте 2 м над землей.
Td - Температура точки росы - температура, при понижении до которой содержащийся в воздухе водяной пар достигнет насыщения.
f - Относительная влажность воздуха - влажноcть воздуха, измеренная на высоте 2 м над землей.
Te - Эффективная температура - температура, которую ощущает одетый по сезону человек в тени. Характеристика душности погоды. При расчете учитывается влияние влажности воздуха и скорости ветра на теплоощущения человека.
Tes - Эффективная температура на солнце - температура, которую ощущает человек, с поправкой на солнечный нагрев. Характеристика знойности погоды. Зависит от высоты солнца над горизонтом, облачности и скорости ветра. Ночью, в пасмурную погоду, а также при ветре 12 м/с и более поправка равна нулю.
P - Атмосферное давление - приведенное к уровню моря атмосферное давление.
Po - Атмосферное давление - измеренное на уровне метеостанции атмосферное давление.
Tmin - Минимальная температура - минимум температуры воздуха на высоте 2 м над землей.
Tmax - Максимальная температура - максимум температуры воздуха на высоте 2 м над землей.
R - Количество осадков - Количество выпавших осадков за период времени, мм. При наведении курсора мыши на число - период времени, за который выпало указанное количество осадков.
R24 - Количество осадков - Количество выпавших осадков за 24 часа, мм.
S - Снежный покров - Высота снежного покрова, см. При наведении курсора мыши на число - состояние снежного покрова и степень покрытия местности в баллах.